Skip Page Navigation
NASA JPL Caltech
NASA Logo - Jet Propulsion Laboratory + View the NASA Portal
+ Near-Earth Object (NEO) Program
Search JPL
JPL Home Earth Solar System Stars & Galaxies Technology
JPL Solar System Dynamics
BODIES ORBITS EPHEMERIDES TOOLS PHYSICAL DATA DISCOVERY FAQ SITE MAP
JPL Small-Body Database Browser
Search: [ help ]  
21242 (1995 WZ41)
Classification: Main-belt Asteroid          SPK-ID: 2021242
Ephemeris | Orbit Diagram | Orbital Elements | Physical Parameters | Discovery Circumstances | Close-Approach Data ]

[ show orbit diagram ]
Orbital Elements at Epoch 2456800.5 (2014-May-23.0) TDB
Reference: JPL 6 (heliocentric ecliptic J2000)
 Element Value Uncertainty (1-sigma)   Units 
e .2823343373222624 7.5617e-08  
a 2.340515682382343 1.5314e-08 AU
q 1.679707738204561 1.7426e-07 AU
i 23.43188445566799 1.0894e-05 deg
node 236.9345589265053 1.8377e-05 deg
peri 149.231022747851 2.3746e-05 deg
M 83.75117247866659 1.8114e-05 deg
tp 2456496.233488713732
(2013-Jul-22.73348871)
6.3878e-05 JED
period 1307.873559512948
3.58
1.2836e-05
3.514e-08
d
yr
n .2752559659773716 2.7015e-09 deg/d
Q 3.001323626560124 1.9638e-08 AU
  Orbit Determination Parameters
   # obs. used (total)      510  
   data-arc span      13729 days (37.59 yr)  
   first obs. used      1976-05-30  
   last obs. used      2013-12-31  
   planetary ephem.      DE431  
   SB-pert. ephem.      SB431-BIG16  
   condition code      0  
   fit RMS      .62486  
   data source      ORB  
   producer      Otto Matic  
   solution date      2014-Jan-22 06:29:37  

Additional Information
 Earth MOID = .713935 AU 
 T_jup = 3.404 
[ show covariance matrix ]

Ephemeris | Orbit Diagram | Orbital Elements | Physical Parameters | Discovery Circumstances | Close-Approach Data ]

Physical Parameter Table
Parameter Symbol Value Units Sigma Reference Notes
absolute magnitude H 13.5 mag n/a MPO267787  

21242 (1995 WZ41)          Discovered 1995-Nov-25 by Ueda, S., Kaneda, H. at Kushiro (399)
Reference: 20010208/Numbers.arcLast Updated: 2004-04-19

[ show close-approach data ]
Alternate Designations
 1995 WZ41 = 1998 MR5 
Ephemeris | Orbit Diagram | Orbital Elements | Physical Parameters | Discovery Circumstances | Close-Approach Data ]
ABOUT SSD CREDITS/AWARDS PRIVACY/COPYRIGHT GLOSSARY LINKS
FirstGov 2014-Apr-25 09:56 UT
(server date/time)  
NASA Home Page
Site Manager:   Donald K. Yeomans
Webmaster  Alan B. Chamberlin